This demonstration page uses our WeatherBlox Daily Observations layout. Learn more.

Hourly Observations for May 17, 2019

Temp ( °F °C ) Dew Point ( °F °C ) Humidity (%) Winds ( mph kmh ) Pressure ( in mb ) Visibility ( mi km ) Precip ( " mm )
12:15 am 00:15 Clear 59 15 55 13 88 88 Calm 29.9 1012 10 16.0934 0 0
12:35 am 00:35 Clear 59 15 55 13 88 88 Calm 29.9 1012 10 16.0934 0 0
12:55 am 00:55 Clear 59 15 55 13 88 88 Calm 29.9 1012 10 16.0934 0 0
1:15 am 01:15 Clear 55 13 54 12 94 94 Calm 29.89 1012 10 16.0934 0 0
1:35 am 01:35 Clear 55 13 54 12 94 94 Calm 29.88 1012 10 16.0934 0 0
1:55 am 01:55 Clear 55 13 54 12 94 94 SE 5 7 29.88 1012 10 16.0934 0 0
2:15 am 02:15 Clear 55 13 54 12 94 94 Calm 29.88 1012 10 16.0934 0 0
2:35 am 02:35 Clear 54 12 54 12 100 100 Calm 29.88 1012 10 16.0934 0 0
3:15 am 03:15 Clear 54 12 54 12 100 100 NNW 3 6 29.88 1012 10 16.0934 0 0
3:35 am 03:35 Clear 54 12 54 12 100 100 Calm 29.86 1011 10 16.0934 0 0
3:55 am 03:55 Clear 55 13 54 12 94 94 SE 3 6 29.85 1011 10 16.0934 0 0
4:15 am 04:15 Clear 54 12 54 12 100 100 Calm 29.84 1011 10 16.0934 0 0
4:35 am 04:35 Clear 52 11 52 11 100 100 W 3 6 29.83 1010 10 16.0934 0 0
4:55 am 04:55 Clear 54 12 54 12 100 100 Calm 29.84 1011 10 16.0934 0 0
5:15 am 05:15 Clear 54 12 52 11 94 94 Calm 29.84 1011 10 16.0934 0 0
5:35 am 05:35 Clear 52 11 52 11 100 100 Calm 29.84 1011 10 16.0934 0 0
5:55 am 05:55 Clear 52 11 52 11 100 100 Calm 29.84 1011 10 16.0934 0 0
6:15 am 06:15 Sunny 54 12 54 12 100 100 Calm 29.84 1011 10 16.0934 0 0
6:35 am 06:35 Sunny 54 12 54 12 100 100 Calm 29.84 1011 10 16.0934 0 0
6:55 am 06:55 Sunny 54 12 54 12 100 100 Calm 29.85 1011 10 16.0934 0 0
7:15 am 07:15 Sunny 55 13 54 12 94 94 Calm 29.85 1011 10 16.0934 0 0
7:35 am 07:35 Sunny 55 13 54 12 94 94 Calm 29.86 1011 10 16.0934 0 0
7:55 am 07:55 Sunny 57 14 55 13 94 94 Calm 29.85 1011 10 16.0934 0 0
8:15 am 08:15 Sunny 59 15 55 13 88 88 Calm 29.85 1011 10 16.0934 0 0
8:35 am 08:35 Sunny 59 15 55 13 88 88 Calm 29.85 1011 10 16.0934 0 0
8:55 am 08:55 Sunny 59 15 55 13 88 88 Calm 29.86 1011 10 16.0934 0 0
9:15 am 09:15 Sunny 61 16 57 14 88 88 Calm 29.86 1011 10 16.0934 0 0
9:35 am 09:35 Sunny 61 16 57 14 88 88 Calm 29.86 1011 10 16.0934 0 0
9:55 am 09:55 Mostly Cloudy 61 16 57 14 88 88 Calm 29.86 1011 10 16.0934 0 0
10:15 am 10:15 Cloudy 63 17 55 13 77 77 Calm 29.85 1011 10 16.0934 0 0
10:35 am 10:35 Mostly Cloudy 63 17 55 13 77 77 Calm 29.85 1011 10 16.0934 0 0
10:55 am 10:55 Mostly Cloudy 64 18 55 13 73 73 Calm 29.84 1011 10 16.0934 0 0
11:15 am 11:15 Cloudy 68 20 59 15 73 73 Calm 29.84 1011 10 16.0934 0 0
11:35 am 11:35 Partly Cloudy 70 21 59 15 69 69 Calm 29.83 1010 10 16.0934 0 0
11:55 am 11:55 Partly Cloudy 70 21 59 15 69 69 Calm 29.83 1010 10 16.0934 0 0
12:15 pm 12:15 Sunny 72 22 59 15 65 65 Calm 29.82 1010 10 16.0934 0 0
12:35 pm 12:35 Sunny 73 23 61 16 65 65 Calm 29.82 1010 10 16.0934 0 0
12:55 pm 12:55 Sunny 75 24 61 16 61 61 WSW 3 6 29.8 1009 10 16.0934 0 0
1:15 pm 13:15 Sunny 77 25 63 17 61 61 WNW 5 7 29.79 1009 10 16.0934 0 0
1:35 pm 13:35 Sunny 77 25 63 17 61 61 W 5 7 29.79 1009 10 16.0934 0 0
1:50 pm 13:50 Sunny 79 26 63 17 58 58 Calm 29.78 1009 10 16.0934 0 0
2:15 pm 14:15 Sunny 81 27 64 18 58 58 W 8 13 29.78 1009 10 16.0934 0 0
2:30 pm 14:30 Sunny 79 26 64 18 61 61 WNW 8 13 29.79 1009 10 16.0934 0 0
2:55 pm 14:55 Sunny 81 27 63 17 54 54 W 12 19 29.78 1009 10 16.0934 0 0
3:15 pm 15:15 Partly Cloudy 79 26 64 18 61 61 WNW 7 11 29.79 1009 10 16.0934 0 0
3:35 pm 15:35 Mostly Cloudy 81 27 64 18 58 58 WSW 6 9 29.79 1009 10 16.0934 0 0
3:50 pm 15:50 Mostly Cloudy 81 27 66 19 62 62 NW 14 22 29.79 1009 10 16.0934 0 0
4:15 pm 16:15 Mostly Cloudy 79 26 66 19 65 65 NW 7 11 29.79 1009 10 16.0934 0 0
4:30 pm 16:30 Cloudy 79 26 66 19 65 65 W 7 11 29.79 1009 10 16.0934 0 0
4:55 pm 16:55 Cloudy 79 26 63 17 58 58 NW 16 26 29.8 1009 10 16.0934 0 0
5:15 pm 17:15 Mostly Cloudy 81 27 64 18 58 58 NW 13 20 29.8 1009 10 16.0934 0 0
5:35 pm 17:35 Partly Cloudy 81 27 64 18 58 58 WNW 13 20 29.8 1009 10 16.0934 0 0
5:55 pm 17:55 Partly Cloudy 79 26 64 18 61 61 NW 13 20 29.8 1009 10 16.0934 0 0
6:15 pm 18:15 Partly Cloudy 81 27 64 18 58 58 NNW 12 19 29.79 1009 10 16.0934 0 0
6:35 pm 18:35 Partly Cloudy 79 26 64 18 61 61 NNW 13 20 29.8 1009 10 16.0934 0 0
6:55 pm 18:55 Partly Cloudy 79 26 64 18 61 61 NW 15 24 29.8 1009 10 16.0934 0 0
7:15 pm 19:15 Partly Cloudy 79 26 64 18 61 61 NW 13 20 29.81 1010 10 16.0934 0 0
7:35 pm 19:35 Sunny 77 25 64 18 65 65 NW 12 19 29.81 1010 10 16.0934 0 0
7:55 pm 19:55 Sunny 77 25 64 18 65 65 NW 12 19 29.82 1010 10 16.0934 0 0
8:10 pm 20:10 Sunny 75 24 64 18 69 69 NW 8 13 29.83 1010 10 16.0934 0 0
8:30 pm 20:30 Clear 73 23 64 18 74 74 NW 5 7 29.84 1010 10 16.0934 0 0
8:55 pm 20:55 Clear 73 23 64 18 74 74 W 3 6 29.86 1011 10 16.0934 0 0
9:15 pm 21:15 Clear 73 23 64 18 74 74 WNW 5 7 29.86 1011 10 16.0934 0 0
9:35 pm 21:35 Clear 72 22 64 18 78 78 WNW 3 6 29.86 1011 10 16.0934 0 0
9:55 pm 21:55 Clear 72 22 64 18 78 78 E 3 6 29.87 1011 10 16.0934 0 0
10:15 pm 22:15 Mostly Cloudy 73 23 64 18 74 74 Calm 29.87 1011 10 16.0934 0 0
10:35 pm 22:35 Cloudy 72 22 64 18 78 78 Calm 29.89 1012 10 16.0934 0 0
10:55 pm 22:55 Cloudy 72 22 64 18 78 78 NW 5 7 29.89 1012 10 16.0934 0 0
11:15 pm 23:15 Cloudy 72 22 64 18 78 78 W 3 6 29.89 1012 10 16.0934 0 0
11:35 pm 23:35 Cloudy 72 22 64 18 78 78 S 3 6 29.9 1012 10 16.0934 0 0
11:55 pm 23:55 Cloudy 73 23 64 18 74 74 S 6 9 29.9 1012 10 16.0934 0 0

Powered by AerisWeather